Almaty, Kazakhstan

6:04 PM +06 on June 27, 2017 (GMT +0600)
Almaty

Weather History for UAAA - April, 2012

Change the Weather History Date:

Sunday, April 15, 2012

  Actual Average Record
Temperature  
Mean Temperature 61 °F -  
Max Temperature 72 °F 63 °F 78 °F (1998)
Min Temperature 50 °F 39 °F 14 °F (2003)
Degree Days  
Heating Degree Days 4    
Growing Degree Days 11 (Base 50)    
Moisture  
Dew Point 32 °F    
Average Humidity 36    
Maximum Humidity 62    
Minimum Humidity 11    
Precipitation  
Precipitation 0.00 in - - ()
Sea Level Pressure  
Sea Level Pressure 30.05 in    
Wind  
Wind Speed 5 mph ()    
Max Wind Speed 13 mph    
Max Gust Speed 25 mph    
Visibility 5.9 miles    
Events      
Averages and records for this station are not official NWS values.
T = Trace of Precipitation, MM = Missing Value Source: Averaged Metar Reports

Daily Weather History Graph

Daily Weather History Graph

Search for Another Location

Airport or City:

Trip Planner

Search our weather history database for the weather conditions in past years. The results will help you decide how hot, cold, wet, or windy it might be!

Date:

Astronomy

Apr. 15, 2012 Rise Set
Actual Time 6:10 AM +06 7:35 PM +06
Civil Twilight 5:40 AM +06 8:04 PM +06
Nautical Twilight 5:04 AM +06 8:40 PM +06
Astronomical Twilight 4:26 AM +06 9:18 PM +06
Moon 3:02 AM +06 (4/15) 1:52 PM +06 (4/15)
Length of Visible Light 14h 24m
Length of Day
13h 25m
Waning Crescent, 31% of the Moon is Illuminated
Apr 15
Waning Crescent
Apr 21
New
Apr 29
First Quarter
May 6
Full
May 13
Last Quarter

Hourly Weather History & Observations

Time (+06) Temp. Dew Point Humidity Pressure Visibility Wind Dir Wind Speed Gust Speed Precip Events Conditions
12:00 AM 60 °F 27 °F 17% 29.99 in - Calm Calm - -  
12:00 AM 51.8 °F 32.0 °F 47% 30.04 in 3.1 mi SSW 2.2 mph - N/A   Smoke
12:30 AM 48.2 °F 33.8 °F 58% 30.04 in 3.1 mi SE 6.7 mph - N/A   Smoke
1:00 AM 48.2 °F 33.8 °F 58% 30.04 in 3.1 mi ESE 6.7 mph - N/A   Smoke
1:30 AM 50.0 °F 32.0 °F 50% 30.04 in 6.2 mi Variable 2.2 mph - N/A   Scattered Clouds
2:00 AM 48.2 °F 32.0 °F 54% 30.04 in 6.2 mi SE 4.5 mph - N/A   Scattered Clouds
2:30 AM 48.2 °F 32.0 °F 54% 30.04 in 6.2 mi SE 8.9 mph - N/A   Scattered Clouds
3:00 AM 48.2 °F 30.2 °F 50% 30.01 in 6.2 mi SSE 8.9 mph - N/A   Partly Cloudy
3:30 AM 48.2 °F 32.0 °F 54% 30.04 in 6.2 mi ESE 8.9 mph - N/A   Scattered Clouds
4:00 AM 50.0 °F 30.2 °F 47% 30.04 in 6.2 mi SE 6.7 mph - N/A   Mostly Cloudy
4:30 AM 48.2 °F 32.0 °F 54% 30.04 in 6.2 mi SSE 6.7 mph - N/A   Mostly Cloudy
5:00 AM 48.2 °F 32.0 °F 54% 30.04 in 6.2 mi SE 6.7 mph - N/A   Mostly Cloudy
5:30 AM 48.2 °F 32.0 °F 54% 30.04 in 6.2 mi SSE 6.7 mph - N/A   Mostly Cloudy
6:00 AM 53 °F 30 °F 29% 30.04 in - Calm Calm - -   Overcast
6:00 AM 50.0 °F 32.0 °F 50% 30.04 in 6.2 mi South 4.5 mph - N/A   Mostly Cloudy
6:30 AM 46.4 °F 33.8 °F 62% 30.06 in 6.2 mi Variable 2.2 mph - N/A   Mostly Cloudy
7:00 AM 48.2 °F 35.6 °F 62% 30.06 in 6.2 mi Variable 2.2 mph - N/A   Mostly Cloudy
7:30 AM 50.0 °F 35.6 °F 58% 30.06 in 6.2 mi Variable 2.2 mph - N/A   Mostly Cloudy
8:00 AM 51.8 °F 37.4 °F 58% 30.06 in 6.2 mi East 4.5 mph - N/A   Mostly Cloudy
8:30 AM 55.4 °F 35.6 °F 47% 30.09 in 6.2 mi Variable 2.2 mph - N/A   Mostly Cloudy
9:00 AM 60 °F 36 °F 28% 30.03 in 6 mi NNE 2.2 mph - -   Overcast
9:00 AM 57.2 °F 35.6 °F 44% 30.09 in 6.2 mi North 4.5 mph - N/A   Mostly Cloudy
9:30 AM 60.8 °F 35.6 °F 39% 30.09 in 6.2 mi NNW 4.5 mph - N/A   Mostly Cloudy
10:00 AM 62.6 °F 35.6 °F 37% 30.09 in 6.2 mi North 4.5 mph - N/A   Mostly Cloudy
10:30 AM 64.4 °F 35.6 °F 34% 30.09 in 6.2 mi North 4.5 mph - N/A   Mostly Cloudy
11:00 AM 66.2 °F 28.4 °F 24% 30.09 in 6.2 mi North 6.7 mph - N/A   Mostly Cloudy
11:30 AM 68.0 °F 33.8 °F 28% 30.09 in 6.2 mi NNE 8.9 mph - N/A   Mostly Cloudy
12:00 PM 67 °F 28 °F 13% 30.00 in 6 mi North 4.5 mph - -   Overcast
12:00 PM 68.0 °F 32.0 °F 26% 30.09 in 6.2 mi NE 6.7 mph - N/A   Mostly Cloudy
12:30 PM 69.8 °F 33.8 °F 27% 30.06 in 6.2 mi ENE 8.9 mph - N/A   Scattered Clouds
1:00 PM 71.6 °F 32.0 °F 23% 30.06 in 6.2 mi NNE 11.2 mph - N/A   Scattered Clouds
1:30 PM 73.4 °F 32.0 °F 22% 30.06 in 6.2 mi NE 8.9 mph 20.1 mph N/A   Scattered Clouds
2:00 PM 73.4 °F 32.0 °F 22% 30.06 in 6.2 mi ENE 11.2 mph 24.6 mph N/A   Scattered Clouds
2:30 PM 73.4 °F 32.0 °F 22% 30.06 in 6.2 mi NE 11.2 mph - N/A   Scattered Clouds
3:00 PM 71 °F 28 °F 11% 29.96 in 6 mi NNE 6.7 mph - -   Overcast
3:00 PM 71.6 °F 26.6 °F 19% 30.04 in 6.2 mi NE 13.4 mph - N/A   Mostly Cloudy
3:30 PM 73.4 °F 30.2 °F 20% 30.04 in 6.2 mi ENE 8.9 mph - N/A   Mostly Cloudy
4:00 PM 73.4 °F 26.6 °F 18% 30.04 in 6.2 mi NE 11.2 mph - N/A   Mostly Cloudy
4:30 PM 71.6 °F 26.6 °F 19% 30.04 in 6.2 mi North 8.9 mph - N/A   Mostly Cloudy
5:00 PM 73.4 °F 26.6 °F 18% 30.04 in 6.2 mi NE 8.9 mph - N/A   Mostly Cloudy
5:30 PM 73.4 °F 24.8 °F 16% 30.06 in 6.2 mi NE 8.9 mph - N/A   Mostly Cloudy
6:00 PM 69 °F 34 °F 17% 29.97 in 6 mi SW 2.2 mph - -   Overcast
6:00 PM 71.6 °F 30.2 °F 22% 30.06 in 6.2 mi NNE 8.9 mph - N/A   Mostly Cloudy
6:30 PM 69.8 °F 32.0 °F 25% 30.06 in 6.2 mi NE 6.7 mph - N/A   Mostly Cloudy
7:00 PM 68.0 °F 33.8 °F 28% 30.06 in 6.2 mi NNE 8.9 mph - N/A   Mostly Cloudy
7:30 PM 66.2 °F 32.0 °F 28% 30.06 in 6.2 mi NNE 6.7 mph - N/A   Mostly Cloudy
8:00 PM 64.4 °F 32.0 °F 30% 30.06 in 6.2 mi NE 4.5 mph - N/A   Mostly Cloudy
8:30 PM 60.8 °F 32.0 °F 34% 30.09 in 6.2 mi SSE 4.5 mph - N/A   Mostly Cloudy
9:00 PM 64 °F 34 °F 21% 30.04 in - NE 2.2 mph - -   Scattered Clouds
9:00 PM 57.2 °F 32.0 °F 38% 30.09 in 6.2 mi South 4.5 mph - N/A   Mostly Cloudy
9:30 PM 55.4 °F 30.2 °F 38% 30.09 in 6.2 mi SSW 4.5 mph - N/A   Mostly Cloudy
10:30 PM 53.6 °F 30.2 °F 41% 30.09 in 6.2 mi SSW 6.7 mph - N/A   Mostly Cloudy
11:00 PM 51.8 °F 32.0 °F 47% 30.09 in 3.1 mi SSW 4.5 mph - N/A   Smoke
11:30 PM 51.8 °F 32.0 °F 47% 30.09 in - SW 6.7 mph - N/A   Smoke